Auburn, AL

8:26 AM CST on December 17, 2017 (GMT -0600)
Auburn-opelika-pitts

Weather History for KAUO - November, 2012

Change the Weather History Date:

Sunday, November 18, 2012

  Actual Average Record
Temperature  
Mean Temperature 53 °F -  
Max Temperature 64 °F - 80 °F (1958)
Min Temperature 41 °F - 23 °F (1959)
Degree Days  
Heating Degree Days 12    
Month to date heating degree days 157  
Since 1 July heating degree days 224  
Growing Degree Days 2 (Base 50)    
Moisture  
Dew Point 35 °F    
Average Humidity 55    
Maximum Humidity 82    
Minimum Humidity 39    
Precipitation  
Precipitation 0.00 in - 2.08 in (2015)
Month to date precipitation 0.92  
Year to date precipitation 23.05  
Sea Level Pressure  
Sea Level Pressure 30.29 in    
Wind  
Wind Speed 8 mph (NE)    
Max Wind Speed 13 mph    
Max Gust Speed 20 mph    
Visibility 10 miles    
Events      
T = Trace of Precipitation, MM = Missing Value Source: NWS Daily Summary

Daily Weather History Graph

Daily Weather History Graph

Search for Another Location

Airport or City:

Trip Planner

Search our weather history database for the weather conditions in past years. The results will help you decide how hot, cold, wet, or windy it might be!

Date:

Astronomy

Nov. 18, 2012 Rise Set
Actual Time 6:14 AM CST 4:39 PM CST
Civil Twilight 5:48 AM CST 5:05 PM CST
Nautical Twilight 5:18 AM CST 5:35 PM CST
Astronomical Twilight 4:49 AM CST 6:04 PM CST
Moon 10:44 AM CST (11/18) 9:53 PM CST (11/18)
Length of Visible Light 11h 16m
Length of Day
10h 24m
Waxing Crescent, 30% of the Moon is Illuminated
Nov 18
Waxing Crescent
Nov 20
First Quarter
Nov 28
Full
Dec 6
Last Quarter
Dec 13
New

Hourly Weather History & Observations

Time (CST) Temp. Windchill Dew Point Humidity Pressure Visibility Wind Dir Wind Speed Gust Speed Precip Events Conditions
12:15 AM 44.6 °F 39.7 °F 28.4 °F 53% 30.31 in 10.0 mi ENE 9.2 mph - N/A   Clear
12:35 AM 44.6 °F 40.2 °F 28.4 °F 53% 30.31 in 10.0 mi NE 8.1 mph - N/A   Clear
12:55 AM 44.6 °F 40.2 °F 28.4 °F 53% 30.30 in 10.0 mi NE 8.1 mph - N/A   Clear
1:15 AM 42.8 °F 38.6 °F 30.2 °F 61% 30.30 in 10.0 mi NNE 6.9 mph - N/A   Clear
1:35 AM 42.8 °F 38.0 °F 28.4 °F 57% 30.30 in 10.0 mi NE 8.1 mph - N/A   Clear
1:55 AM 42.8 °F 38.0 °F 28.4 °F 57% 30.30 in 10.0 mi NE 8.1 mph - N/A   Clear
2:15 AM 42.8 °F 38.0 °F 28.4 °F 57% 30.30 in 10.0 mi NE 8.1 mph - N/A   Clear
2:35 AM 42.8 °F 37.5 °F 28.4 °F 57% 30.30 in 10.0 mi NE 9.2 mph - N/A   Clear
2:55 AM 42.8 °F 37.5 °F 28.4 °F 57% 30.29 in 10.0 mi NE 9.2 mph - N/A   Clear
3:15 AM 42.8 °F 37.5 °F 28.4 °F 57% 30.29 in 10.0 mi NE 9.2 mph - N/A   Clear
3:35 AM 42.8 °F 38.0 °F 26.6 °F 53% 30.30 in 10.0 mi NE 8.1 mph - N/A   Clear
3:55 AM 42.8 °F 37.5 °F 28.4 °F 57% 30.30 in 10.0 mi NNE 9.2 mph - N/A   Clear
4:15 AM 42.8 °F 37.5 °F 28.4 °F 57% 30.30 in 10.0 mi NNE 9.2 mph - N/A   Clear
4:35 AM 41.0 °F 34.7 °F 26.6 °F 57% 30.31 in 10.0 mi NNE 10.4 mph - N/A   Clear
4:55 AM 42.8 °F 36.2 °F 26.6 °F 53% 30.31 in 10.0 mi NNE 12.7 mph 17.3 mph N/A   Clear
5:15 AM 41.0 °F 34.3 °F 26.6 °F 57% 30.31 in 10.0 mi NE 11.5 mph - N/A   Clear
5:35 AM 41.0 °F 34.3 °F 26.6 °F 57% 30.32 in 10.0 mi NE 11.5 mph - N/A   Clear
5:55 AM 41.0 °F 34.3 °F 26.6 °F 57% 30.32 in 10.0 mi NNE 11.5 mph - N/A   Clear
6:15 AM 41.0 °F 33.9 °F 26.6 °F 57% 30.32 in 10.0 mi NE 12.7 mph - N/A   Clear
6:35 AM 41.0 °F 34.3 °F 26.6 °F 57% 30.33 in 10.0 mi NE 11.5 mph 17.3 mph N/A   Clear
6:55 AM 42.8 °F 36.6 °F 26.6 °F 53% 30.33 in 10.0 mi NE 11.5 mph - N/A   Clear
7:15 AM 44.6 °F 38.8 °F 26.6 °F 49% 30.34 in 10.0 mi NE 11.5 mph 18.4 mph N/A   Clear
7:35 AM 44.6 °F 39.2 °F 26.6 °F 49% 30.34 in 10.0 mi NE 10.4 mph - N/A   Clear
7:55 AM 46.4 °F 40.7 °F 26.6 °F 46% 30.33 in 10.0 mi NE 12.7 mph 19.6 mph N/A   Clear
8:15 AM 48.2 °F - 28.4 °F 46% 30.33 in 10.0 mi NE 16.1 mph 20.7 mph N/A   Clear
8:35 AM 50.0 °F - 28.4 °F 43% 30.34 in 10.0 mi NE 13.8 mph 18.4 mph N/A   Clear
8:55 AM 51.8 °F - 30.2 °F 44% 30.34 in 10.0 mi NE 12.7 mph - N/A   Clear
9:15 AM 53.6 °F - 33.8 °F 47% 30.34 in 10.0 mi ENE 10.4 mph - N/A   Clear
9:35 AM 53.6 °F - 33.8 °F 47% 30.35 in 10.0 mi ENE 10.4 mph - N/A   Clear
9:55 AM 53.6 °F - 33.8 °F 47% 30.34 in 10.0 mi NE 8.1 mph - N/A   Clear
10:15 AM 55.4 °F - 33.8 °F 44% 30.34 in 10.0 mi NE 9.2 mph - N/A   Clear
10:35 AM 57.2 °F - 35.6 °F 44% 30.33 in 10.0 mi NNE 9.2 mph - N/A   Clear
10:55 AM 57.2 °F - 35.6 °F 44% 30.31 in 10.0 mi ENE 8.1 mph - N/A   Clear
11:15 AM 59.0 °F - 35.6 °F 42% 30.30 in 10.0 mi ENE 5.8 mph - N/A   Clear
11:35 AM 60.8 °F - 37.4 °F 42% 30.29 in 10.0 mi NNE 8.1 mph - N/A   Clear
11:55 AM 60.8 °F - 37.4 °F 42% 30.29 in 10.0 mi NNE 3.5 mph - N/A   Clear
12:15 PM 62.6 °F - 37.4 °F 39% 30.28 in 10.0 mi North 6.9 mph - N/A   Clear
12:35 PM 64.4 °F - 39.2 °F 40% 30.27 in 10.0 mi NE 5.8 mph - N/A   Clear
12:55 PM 62.6 °F - 39.2 °F 42% 30.26 in 10.0 mi East 3.5 mph - N/A   Clear
1:15 PM 64.4 °F - 41.0 °F 42% 30.26 in 10.0 mi NE 4.6 mph - N/A   Clear
1:35 PM 64.4 °F - 39.2 °F 40% 30.26 in 10.0 mi NNE 5.8 mph - N/A   Clear
1:55 PM 64.4 °F - 39.2 °F 40% 30.26 in 10.0 mi North 5.8 mph - N/A   Clear
2:15 PM 64.4 °F - 39.2 °F 40% 30.25 in 10.0 mi NNE 5.8 mph - N/A   Clear
2:35 PM 64.4 °F - 39.2 °F 40% 30.25 in 10.0 mi NNE 4.6 mph - N/A   Clear
2:55 PM 64.4 °F - 39.2 °F 40% 30.25 in 10.0 mi NE 5.8 mph - N/A   Clear
3:15 PM 64.4 °F - 39.2 °F 40% 30.25 in 10.0 mi North 6.9 mph - N/A   Clear
3:35 PM 64.4 °F - 41.0 °F 42% 30.25 in 10.0 mi NE 5.8 mph - N/A   Clear
3:55 PM 64.4 °F - 41.0 °F 42% 30.25 in 10.0 mi ENE 5.8 mph - N/A   Clear
4:15 PM 62.6 °F - 41.0 °F 45% 30.25 in 10.0 mi NNE 5.8 mph - N/A   Clear
4:55 PM 57.2 °F - 42.8 °F 59% 30.26 in 10.0 mi NNE 3.5 mph - N/A   Clear
5:15 PM 57.2 °F - 42.8 °F 59% 30.26 in 10.0 mi NNE 3.5 mph - N/A   Clear
5:35 PM 55.4 °F - 42.8 °F 63% 30.26 in 10.0 mi NNE 3.5 mph - N/A   Clear
5:55 PM 53.6 °F - 42.8 °F 67% 30.27 in 10.0 mi North 4.6 mph - N/A   Clear
6:15 PM 53.6 °F - 42.8 °F 67% 30.27 in 10.0 mi NNE 5.8 mph - N/A   Clear
6:35 PM 51.8 °F - 42.8 °F 71% 30.27 in 10.0 mi NNE 5.8 mph - N/A   Clear
6:55 PM 53.6 °F - 42.8 °F 67% 30.27 in 10.0 mi NE 6.9 mph - N/A   Clear
7:15 PM 51.8 °F - 42.8 °F 71% 30.27 in 10.0 mi NE 8.1 mph - N/A   Clear
7:35 PM 53.6 °F - 42.8 °F 67% 30.28 in 10.0 mi NE 6.9 mph - N/A   Clear
7:55 PM 53.6 °F - 42.8 °F 67% 30.28 in 10.0 mi NE 6.9 mph - N/A   Clear
8:15 PM 53.6 °F - 42.8 °F 67% 30.28 in 10.0 mi NE 8.1 mph - N/A   Clear
8:35 PM 53.6 °F - 42.8 °F 67% 30.28 in 10.0 mi NE 8.1 mph - N/A   Clear
8:55 PM 53.6 °F - 42.8 °F 67% 30.29 in 10.0 mi NE 8.1 mph - N/A   Clear
9:15 PM 51.8 °F - 42.8 °F 71% 30.29 in 10.0 mi NE 8.1 mph - N/A   Clear
9:35 PM 51.8 °F - 42.8 °F 71% 30.29 in 10.0 mi NE 6.9 mph - N/A   Clear
9:55 PM 50.0 °F - 42.8 °F 76% 30.29 in 10.0 mi ENE 5.8 mph - N/A   Clear
10:35 PM 48.2 °F - 42.8 °F 82% 30.29 in 10.0 mi NE 9.2 mph - N/A   Clear
11:15 PM 48.2 °F - 42.8 °F 82% 30.29 in 10.0 mi NE 8.1 mph - N/A   Clear
11:35 PM 48.2 °F - 42.8 °F 82% 30.29 in 10.0 mi NE 8.1 mph - N/A   Clear
11:55 PM 48.2 °F - 42.8 °F 82% 30.29 in 10.0 mi NE 8.1 mph - N/A   Clear